User: anonymous   Login
Location: Unspecified
(0.0000°N, 0.0000°E)
Time: 11:43:53
(UTC+01:00)
Language:

Iridium 4 Rocket - Orbit

View from above orbital plane
View from above orbital plane
View from above satellite
View from above satellite

Ground track
Ground track

The orbit data is extracted from the following two-line orbital elements,

1 24797U 97020F   16040.93697172 +.00000726 +00000-0 +14998-3 0  9991
2 24797 086.9006 173.9801 0226636 161.2110 322.2594 14.43808797986771
Epoch (UTC): 09 February 2016 22:29:14
Eccentricity: 0.0226636
inclination: 86.9006°
perigee height: 584 km
apogee height: 907 km
right ascension of ascending node: 173.9801°
argument of perigee: 161.2110°
revolutions per day: 14.43808797
mean anomaly at epoch: 322.2594°
orbit number at epoch: 98677

The dashed part of the orbit path shows where the satellite is in the earth's shadow,  

DLR